星链-2540 (STARLINK-2540 )

导读 | 豆包AI

STARLINK-2540是美国SpaceX公司星链计划中的卫星,于北京时间2021年4月29日发射,属于Starlink Group组网卫星。星链计划旨在构建全球卫星互联网星座,该卫星加入星座后进一步扩大了星链覆盖范围,提升了低轨卫星通信网络服务能力,为后续全球宽带网络铺设提供基础设施支持。

基本信息
目录编号:
48290
目录名称:
STARLINK-2540
国际标识:
2021-036Q
轨道中心:
EARTH
卫星名称:
星链-2540
卫星全名:
星链-2540 (STARLINK-2540 )
卫星状态:
已陨落 最后检测时间 2026-01-13
发射日期:
2021-04-29 UTC
国别 :
美国 (US)
星等 :
--
轨道信息
数据来源 国际轨道数据
星历时间: 2026-01-14T01:39:14+0800
轨道信息已过期106天
半长轴: 6528.639km
偏心率: 0.000439
轨道倾角: 53.030°
近地点辐角 227.164°
升交点赤经 292.766°
平近点角 132.904°
近地点: 147.635km
远地点: 153.369km
周期: 87.497分钟
每日圈数: 16.45769
详细信息
固有亮度:
5
最大亮度:
2.5
卫星平台:
Starlink V1.0
覆盖范围:
全球
运营商:
太空探索技术公司
运营商所在国:
美国
制造商(研发单位):
太空探索技术公司
制造商所在国:
美国
使用方式:
暂无
卫星简介
星链(Starlink)计划是由太空探索技术公司(SpaceX)提出的一个巨型低轨卫星互联网星座项目,计划在2019年至2024年间在太空搭建由约1.2万颗卫星组成的“星链”网络,其中1584颗将部署在地球上空550千米处的近地轨道,并从2020年开始工作。该卫星仍在工作。